TimeCDT,TemperatureF,Dew PointF,Humidity,Sea Level PressureIn,VisibilityMPH,Wind Direction,Wind SpeedMPH,Gust SpeedMPH,PrecipitationIn,Events,Conditions,WindDirDegrees,DateUTC
12:15 AM,78.8,71.6,78,30.03,10.0,SSW,4.6,-,N/A,,Scattered Clouds,210,2013-08-01 05:15:00
12:35 AM,78.8,71.6,78,30.01,10.0,SSW,4.6,-,N/A,,Clear,210,2013-08-01 05:35:00
12:55 AM,78.8,71.6,78,30.01,10.0,SSW,6.9,-,N/A,,Clear,210,2013-08-01 05:55:00
1:15 AM,78.8,71.6,78,30.00,10.0,SSW,5.8,-,N/A,,Clear,210,2013-08-01 06:15:00
1:35 AM,78.8,71.6,78,30.00,10.0,Calm,Calm,-,N/A,,Clear,0,2013-08-01 06:35:00
1:55 AM,77.0,71.6,83,29.99,10.0,SW,3.5,-,N/A,,Clear,230,2013-08-01 06:55:00
2:15 AM,77.0,71.6,83,29.99,10.0,Calm,Calm,-,N/A,,Clear,0,2013-08-01 07:15:00
2:35 AM,75.2,71.6,89,29.98,10.0,SW,3.5,-,N/A,,Clear,220,2013-08-01 07:35:00
2:55 AM,75.2,71.6,89,29.98,10.0,Calm,Calm,-,N/A,,Clear,0,2013-08-01 07:55:00
3:15 AM,75.2,71.6,89,29.98,9.0,Calm,Calm,-,N/A,,Clear,0,2013-08-01 08:15:00
3:35 AM,75.2,71.6,89,29.98,8.0,Calm,Calm,-,N/A,,Clear,0,2013-08-01 08:35:00
3:55 AM,75.2,71.6,89,29.98,7.0,Calm,Calm,-,N/A,,Clear,0,2013-08-01 08:55:00
4:15 AM,75.2,71.6,89,29.98,7.0,Calm,Calm,-,N/A,,Partly Cloudy,0,2013-08-01 09:15:00
4:35 AM,75.2,71.6,89,29.98,5.0,Calm,Calm,-,N/A,,Partly Cloudy,0,2013-08-01 09:35:00
4:55 AM,75.2,71.6,89,29.99,6.0,Calm,Calm,-,N/A,,Clear,0,2013-08-01 09:55:00
5:15 AM,75.2,71.6,89,29.99,5.0,Calm,Calm,-,N/A,,Mostly Cloudy,0,2013-08-01 10:15:00
5:35 AM,75.2,71.6,89,30.01,5.0,Calm,Calm,-,N/A,,Mostly Cloudy,0,2013-08-01 10:35:00
5:55 AM,75.2,71.6,89,30.01,5.0,Calm,Calm,-,N/A,,Mostly Cloudy,0,2013-08-01 10:55:00
6:15 AM,75.2,71.6,89,30.02,5.0,Calm,Calm,-,N/A,,Mostly Cloudy,0,2013-08-01 11:15:00
6:35 AM,75.2,71.6,89,30.02,5.0,Calm,Calm,-,N/A,,Overcast,0,2013-08-01 11:35:00
6:55 AM,75.2,71.6,89,30.02,5.0,Calm,Calm,-,N/A,,Mostly Cloudy,0,2013-08-01 11:55:00
7:15 AM,75.2,71.6,89,30.02,5.0,Calm,Calm,-,N/A,,Mostly Cloudy,0,2013-08-01 12:15:00
7:35 AM,77.0,71.6,83,30.03,7.0,Calm,Calm,-,N/A,,Mostly Cloudy,0,2013-08-01 12:35:00
7:55 AM,78.8,73.4,83,30.03,9.0,Calm,Calm,-,N/A,,Mostly Cloudy,0,2013-08-01 12:55:00
8:15 AM,78.8,73.4,83,30.03,10.0,West,5.8,-,N/A,,Mostly Cloudy,270,2013-08-01 13:15:00
8:35 AM,78.8,73.4,83,30.03,10.0,West,3.5,-,N/A,,Overcast,280,2013-08-01 13:35:00
8:55 AM,80.6,73.4,79,30.03,10.0,West,5.8,-,N/A,,Scattered Clouds,270,2013-08-01 13:55:00
9:15 AM,82.4,73.4,74,30.03,10.0,WNW,9.2,-,N/A,,Partly Cloudy,290,2013-08-01 14:15:00
9:35 AM,80.6,73.4,79,30.03,10.0,WNW,4.6,-,N/A,,Scattered Clouds,300,2013-08-01 14:35:00
9:55 AM,82.4,75.2,79,30.03,8.0,WNW,5.8,-,N/A,,Clear,290,2013-08-01 14:55:00
10:15 AM,84.2,75.2,74,30.03,8.0,WNW,5.8,-,N/A,,Clear,290,2013-08-01 15:15:00
10:35 AM,87.8,75.2,66,30.03,10.0,NW,6.9,-,N/A,,Partly Cloudy,310,2013-08-01 15:35:00
10:55 AM,86.0,75.2,70,30.03,10.0,West,6.9,-,N/A,,Partly Cloudy,280,2013-08-01 15:55:00
11:15 AM,87.8,75.2,66,30.03,10.0,WNW,5.8,-,N/A,,Scattered Clouds,290,2013-08-01 16:15:00
11:35 AM,87.8,75.2,66,30.02,10.0,WNW,4.6,-,N/A,,Mostly Cloudy,300,2013-08-01 16:35:00
11:55 AM,89.6,75.2,62,30.02,10.0,West,4.6,-,N/A,,Mostly Cloudy,280,2013-08-01 16:55:00
12:15 PM,87.8,75.2,66,30.01,10.0,West,5.8,-,N/A,,Scattered Clouds,270,2013-08-01 17:15:00
12:35 PM,87.8,75.2,66,30.00,10.0,WNW,5.8,-,N/A,,Mostly Cloudy,300,2013-08-01 17:35:00
12:55 PM,87.8,77.0,70,30.00,10.0,WSW,5.8,-,N/A,,Mostly Cloudy,240,2013-08-01 17:55:00
1:15 PM,87.8,75.2,66,30.00,10.0,NW,5.8,-,N/A,,Scattered Clouds,320,2013-08-01 18:15:00
1:35 PM,89.6,75.2,62,30.00,10.0,NW,4.6,-,N/A,Thunderstorm,Mostly Cloudy,310,2013-08-01 18:35:00
1:55 PM,87.8,75.2,66,29.99,10.0,WNW,3.5,-,N/A,,Mostly Cloudy,300,2013-08-01 18:55:00
2:15 PM,91.4,75.2,59,29.98,10.0,West,8.1,-,N/A,,Partly Cloudy,280,2013-08-01 19:15:00
2:35 PM,91.4,75.2,59,29.98,10.0,West,4.6,-,N/A,,Scattered Clouds,270,2013-08-01 19:35:00
2:55 PM,89.6,75.2,62,29.98,10.0,NW,5.8,-,N/A,,Mostly Cloudy,310,2013-08-01 19:55:00
3:16 PM,93.2,75.2,56,29.96,10.0,NW,8.1,-,N/A,,Scattered Clouds,310,2013-08-01 20:16:00
3:35 PM,91.4,73.4,55,29.95,10.0,NW,8.1,-,N/A,,Partly Cloudy,310,2013-08-01 20:35:00
3:55 PM,93.2,75.2,56,29.94,10.0,NW,8.1,-,N/A,,Scattered Clouds,320,2013-08-01 20:55:00
4:15 PM,93.2,75.2,56,29.94,10.0,NW,8.1,-,N/A,,Partly Cloudy,310,2013-08-01 21:15:00
4:35 PM,93.2,73.4,52,29.93,10.0,NNW,9.2,-,N/A,,Scattered Clouds,330,2013-08-01 21:35:00
4:55 PM,93.2,75.2,56,29.94,10.0,NNW,8.1,-,N/A,Thunderstorm,Mostly Cloudy,330,2013-08-01 21:55:00
5:15 PM,87.8,75.2,66,29.95,10.0,NNE,18.4,28.8,N/A,Thunderstorm,Thunderstorm,30,2013-08-01 22:15:00
5:35 PM,80.6,73.4,79,29.95,10.0,East,8.1,-,N/A,Thunderstorm,Thunderstorm,90,2013-08-01 22:35:00
5:55 PM,78.8,71.6,78,29.95,10.0,Calm,Calm,-,N/A,Thunderstorm,Thunderstorm,0,2013-08-01 22:55:00
6:15 PM,82.4,71.6,70,29.95,10.0,Calm,Calm,-,N/A,Thunderstorm,Clear,0,2013-08-01 23:15:00
6:35 PM,82.4,73.4,74,29.96,10.0,South,3.5,-,N/A,,Scattered Clouds,190,2013-08-01 23:35:00
6:55 PM,80.6,71.6,74,29.97,10.0,SSW,8.1,-,N/A,Thunderstorm,Partly Cloudy,200,2013-08-01 23:55:00
7:15 PM,78.8,71.6,78,29.98,10.0,SSW,8.1,-,N/A,Thunderstorm,Thunderstorm,210,2013-08-02 00:15:00
7:35 PM,78.8,69.8,74,29.97,10.0,Calm,Calm,-,N/A,,Partly Cloudy,0,2013-08-02 00:35:00
7:55 PM,77.0,71.6,83,29.97,10.0,Calm,Calm,-,N/A,,Clear,0,2013-08-02 00:55:00
8:15 PM,75.2,71.6,89,29.96,10.0,Calm,Calm,-,N/A,,Clear,0,2013-08-02 01:15:00
8:35 PM,75.2,71.6,89,29.97,10.0,Calm,Calm,-,N/A,,Clear,0,2013-08-02 01:35:00
8:55 PM,75.2,71.6,89,29.98,6.0,Calm,Calm,-,N/A,,Clear,0,2013-08-02 01:55:00
9:15 PM,75.2,71.6,89,29.98,10.0,Calm,Calm,-,N/A,,Clear,0,2013-08-02 02:15:00
9:35 PM,75.2,71.6,89,29.99,10.0,Calm,Calm,-,N/A,,Clear,0,2013-08-02 02:35:00
9:55 PM,73.4,71.6,94,29.99,8.0,WNW,3.5,-,N/A,,Clear,300,2013-08-02 02:55:00
10:15 PM,75.2,69.8,83,29.99,10.0,Calm,Calm,-,N/A,,Clear,0,2013-08-02 03:15:00
10:35 PM,73.4,69.8,88,29.99,10.0,Calm,Calm,-,N/A,,Clear,0,2013-08-02 03:35:00
10:55 PM,73.4,69.8,88,29.99,10.0,NNE,3.5,-,N/A,,Clear,20,2013-08-02 03:55:00
11:15 PM,73.4,69.8,88,29.99,10.0,Calm,Calm,-,N/A,,Clear,0,2013-08-02 04:15:00
11:35 PM,73.4,69.8,88,29.99,9.0,Calm,Calm,-,N/A,,Clear,0,2013-08-02 04:35:00
11:55 PM,73.4,69.8,88,30.00,8.0,Calm,Calm,-,N/A,,Clear,0,2013-08-02 04:55:00